Weather in Kiselevsk

Russia / Kemerovo Oblast     54°00′21″N   86°38′12″E
temp.,
°C
wind,
m/s
gust,
m/s
humid.,
%
clouds,
%
prec.,
mm/h
press.,
hPa
HPBL,
m
17 october, sun
sun1701:00+1nnw00715 0.0 102710
04:00+1ese017281 0.0 102610
07:00+1se117479 0.0 102610
10:00+4sse226770 0.0 1026137
13:00+8sse235467 0.0 1025447
16:00+9sse125158 0.0 1025485
19:00+5s226813 0.0 102610
22:00+3ssw22735 0.0 102610
18 october, mon
mon1801:00+2ssw11765 0.0 102610
04:00+1ssw228240 0.0 102710
07:00+1ssw22865 0.0 102712
10:00+4ssw24745 0.0 1028189
13:00+8sw3556100 0.0 1027717
16:00+8sw3456100 0.0 1027676
19:00+4sw33735 0.0 102824
22:00+2sw22780 0.0 102910
19 october, tue
tue1901:00+2ssw118065 0.0 102910
04:00+1s22815 0.0 102910
07:00+1s22815 0.0 102910
10:00+4sse22686 0.0 1029139
13:00+8se225398 0.0 1028399
16:00+8ese1154100 0.0 1027222
19:00+5ese1164100 0.0 102710
22:00+4e1164100 0.0 102610
20 october, wed
wed2001:00+3e1167100 0.0 102610
04:00+3e1169100 0.0 102510
07:00+2ese117292 0.0 102410
10:00+5se12625 0.0 102382
13:00+10se23495 0.0 1021295
16:00+11sse24505 0.0 1019332
19:00+7sse22645 0.0 101911
22:00+5s22695 0.0 101911
21 october, thu
thu2101:00+4sse22735 0.0 101811
04:00+3sse22735 0.0 101816
07:00+3sse227030 0.0 101819
10:00+5sse366269 0.0 1017140
13:00+11sse464549 0.0 1016285
16:00+12sse484797 0.0 1015273
19:00+8s345796 0.0 101558
22:00+8s335496 0.0 101524